DLH760 EDDF-VIDP

Flight info

Callsign DLH760
Flight time N/A
Altitude 39000
Route CINDY8S CINDY Z74 HAREM DCT ASLEP DCT TAKUT DCT DINKU L603 BESNI L605 MIQ DCT ALUTU DCT BIBAG Q104 AKIMA DCT STEIN DCT TEGRI DCT DINRO N743 UDROS UM859 KARDE UL851 TBN UR317 REBLO P130 MAMED B449 RANAH L750 MERUN G452 LKA LKA7G
Aircraft A333/H-SDE3GHIJ2J3J5M1RVWXY/LB2D1

Departure

Time 2026-05-04 20:46
Airport Frankfurt Main Airport (EDDF)

Arrival

Time N/A
Airport Indira Gandhi International Airport (VIDP)
Time Latitude Longitude Altitude Speed Heading
2026-05-04 20:29 50.04766 8.56383 360 ft 0 kts 340°
2026-05-04 20:37 50.04761 8.56386 360 ft 2 kts 339°
2026-05-04 20:37 50.04745 8.56395 366 ft 2 kts 339°
2026-05-04 20:38 50.04717 8.56411 366 ft 8 kts 339°
2026-05-04 20:38 50.04680 8.56462 362 ft 3 kts 283°
2026-05-04 20:38 50.04658 8.56393 367 ft 8 kts 242°
2026-05-04 20:38 50.04638 8.56315 366 ft 8 kts 250°
2026-05-04 20:39 50.04620 8.56236 364 ft 8 kts 250°
2026-05-04 20:39 50.04601 8.56157 365 ft 8 kts 250°
2026-05-04 20:39 50.04590 8.56111 367 ft 0 kts 250°
2026-05-04 20:39 50.04588 8.56100 367 ft 4 kts 250°
2026-05-04 20:40 50.04551 8.55985 367 ft 18 kts 229°
2026-05-04 20:40 50.04452 8.55924 366 ft 15 kts 196°
2026-05-04 20:40 50.04347 8.55928 364 ft 16 kts 162°
2026-05-04 20:40 50.04254 8.55953 360 ft 8 kts 203°
2026-05-04 20:41 50.04214 8.55840 361 ft 21 kts 249°
2026-05-04 20:41 50.04152 8.55580 364 ft 27 kts 249°
2026-05-04 20:41 50.04088 8.55313 365 ft 26 kts 249°
2026-05-04 20:41 50.04047 8.55143 365 ft 25 kts 250°
2026-05-04 20:42 50.03967 8.54800 364 ft 26 kts 250°
2026-05-04 20:42 50.03903 8.54535 359 ft 27 kts 249°
2026-05-04 20:42 50.03818 8.54281 358 ft 26 kts 239°
2026-05-04 20:42 50.03752 8.54022 356 ft 26 kts 249°
2026-05-04 20:43 50.03689 8.53759 357 ft 26 kts 250°
2026-05-04 20:43 50.03625 8.53494 348 ft 26 kts 248°
2026-05-04 20:43 50.03558 8.53227 346 ft 27 kts 249°
2026-05-04 20:43 50.03493 8.52957 336 ft 27 kts 249°
2026-05-04 20:44 50.03428 8.52685 337 ft 27 kts 256°
2026-05-04 20:44 50.03401 8.52592 334 ft 7 kts 219°
2026-05-04 20:44 50.03382 8.52592 335 ft 2 kts 175°
2026-05-04 20:44 50.03374 8.52591 334 ft 0 kts 180°
2026-05-04 20:45 50.03373 8.52591 334 ft 1 kts 180°
2026-05-04 20:45 50.03227 8.52592 336 ft 50 kts 180°
2026-05-04 20:45 50.02681 8.52598 337 ft 106 kts 179°
2026-05-04 20:45 50.01773 8.52610 335 ft 154 kts 179°
2026-05-04 20:46 50.00596 8.52621 675 ft 175 kts 181°
2026-05-04 20:46 49.99359 8.52623 1390 ft 178 kts 180°
2026-05-04 20:46 49.98114 8.52637 2088 ft 184 kts 178°
2026-05-04 20:46 49.96794 8.53128 2405 ft 210 kts 149°
2026-05-04 20:47 49.95762 8.54848 2794 ft 228 kts 122°
2026-05-04 20:47 49.94967 8.57020 3495 ft 233 kts 118°
2026-05-04 20:47 49.94269 8.59288 4308 ft 234 kts 109°
2026-05-04 20:47 49.93958 8.61820 4911 ft 249 kts 97°
2026-05-04 20:48 49.93839 8.64600 5348 ft 265 kts 94°
2026-05-04 20:48 49.93663 8.67487 5984 ft 271 kts 105°
2026-05-04 20:48 49.92887 8.70128 6709 ft 270 kts 131°
2026-05-04 20:48 49.91513 8.72093 7436 ft 270 kts 145°
2026-05-04 20:49 49.89986 8.73802 8227 ft 272 kts 147°
2026-05-04 20:49 49.88553 8.75684 9012 ft 278 kts 134°
2026-05-04 20:49 49.87439 8.78174 9787 ft 284 kts 124°
2026-05-04 20:49 49.86447 8.80865 10331 ft 295 kts 122°
2026-05-04 20:50 49.85402 8.83780 10597 ft 315 kts 122°
2026-05-04 20:50 49.84320 8.86796 10846 ft 334 kts 122°
2026-05-04 20:50 49.83158 8.90019 11081 ft 352 kts 122°
2026-05-04 20:50 49.81936 8.93396 11443 ft 365 kts 122°
2026-05-04 20:51 49.80682 8.96859 12001 ft 371 kts 122°
2026-05-04 20:51 49.79393 9.00407 12642 ft 376 kts 122°
2026-05-04 20:51 49.78104 9.03948 13322 ft 380 kts 122°
2026-05-04 20:51 49.76832 9.07496 13938 ft 384 kts 119°
2026-05-04 20:52 49.75859 9.11364 14545 ft 389 kts 109°
2026-05-04 20:52 49.75143 9.15423 15128 ft 393 kts 109°
2026-05-04 20:52 49.74101 9.19317 15677 ft 392 kts 123°
2026-05-04 20:52 49.72573 9.22816 16246 ft 394 kts 129°
2026-05-04 20:53 49.70842 9.26113 16828 ft 396 kts 133°
2026-05-04 20:53 49.69006 9.29301 17394 ft 399 kts 135°
2026-05-04 20:53 49.67121 9.32473 17943 ft 402 kts 135°
2026-05-04 20:53 49.65220 9.35668 18452 ft 406 kts 135°
2026-05-04 20:54 49.63362 9.38974 18913 ft 411 kts 130°
2026-05-04 20:54 49.61834 9.42732 19366 ft 418 kts 119°
2026-05-04 20:54 49.60649 9.46853 19805 ft 423 kts 114°
2026-05-04 20:54 49.59619 9.51118 20244 ft 427 kts 112°
2026-05-04 20:55 49.58672 9.55480 20679 ft 431 kts 111°
2026-05-04 20:55 49.57759 9.59898 21104 ft 434 kts 110°
2026-05-04 20:55 49.56844 9.64350 21527 ft 437 kts 110°
2026-05-04 20:55 49.55913 9.68829 21974 ft 440 kts 110°
2026-05-04 20:56 49.54968 9.73303 22387 ft 442 kts 111°
2026-05-04 20:56 49.53998 9.77816 22812 ft 445 kts 112°
2026-05-04 20:56 49.52784 9.82200 23222 ft 445 kts 121°
2026-05-04 20:56 49.51145 9.86241 23611 ft 446 kts 128°
2026-05-04 20:57 49.49313 9.90094 23966 ft 447 kts 130°
2026-05-04 20:57 49.47418 9.93794 24414 ft 446 kts 131°
2026-05-04 20:57 49.45456 9.97491 24793 ft 448 kts 132°
2026-05-04 20:57 49.43465 10.01186 25139 ft 450 kts 133°
2026-05-04 20:58 49.41468 10.04886 25491 ft 452 kts 133°
2026-05-04 20:58 49.39456 10.08629 25846 ft 454 kts 133°
2026-05-04 20:58 49.37446 10.12384 26197 ft 457 kts 133°
2026-05-04 20:58 49.35428 10.16165 26546 ft 459 kts 133°
2026-05-04 20:59 49.33405 10.19961 26892 ft 461 kts 133°
2026-05-04 20:59 49.31372 10.23776 27237 ft 463 kts 133°
2026-05-04 20:59 49.29327 10.27609 27563 ft 465 kts 133°
2026-05-04 20:59 49.27274 10.31452 27857 ft 468 kts 133°
2026-05-04 21:00 49.25211 10.35308 28213 ft 469 kts 133°
2026-05-04 21:00 49.23032 10.39013 28587 ft 468 kts 137°
2026-05-04 21:00 49.20745 10.42574 28893 ft 470 kts 138°
2026-05-04 21:00 49.18416 10.46099 29211 ft 472 kts 139°
2026-05-04 21:01 49.16061 10.49607 29559 ft 474 kts 139°
2026-05-04 21:01 49.13696 10.53103 29991 ft 472 kts 139°
2026-05-04 21:01 49.11339 10.56581 30421 ft 470 kts 139°
2026-05-04 21:01 49.08986 10.60051 30816 ft 469 kts 139°
2026-05-04 21:02 49.06642 10.63508 31163 ft 469 kts 139°
2026-05-04 21:02 49.04300 10.66960 31475 ft 469 kts 139°
2026-05-04 21:02 49.01953 10.70417 31860 ft 468 kts 139°
2026-05-04 21:02 48.99621 10.73847 32337 ft 464 kts 139°
2026-05-04 21:03 48.97302 10.77253 32750 ft 463 kts 139°
2026-05-04 21:03 48.94987 10.80646 33103 ft 462 kts 139°
2026-05-04 21:03 48.92676 10.84028 33458 ft 461 kts 139°
2026-05-04 21:03 48.90371 10.87402 33819 ft 459 kts 139°
2026-05-04 21:04 48.88070 10.90768 34120 ft 458 kts 140°
2026-05-04 21:04 48.85774 10.94126 34360 ft 458 kts 140°
2026-05-04 21:04 48.83475 10.97483 34597 ft 459 kts 140°
2026-05-04 21:04 48.81170 11.00843 34767 ft 460 kts 139°
2026-05-04 21:05 48.78857 11.04210 34971 ft 461 kts 139°
2026-05-04 21:05 48.76544 11.07573 35199 ft 461 kts 139°
2026-05-04 21:05 48.74226 11.10933 35466 ft 460 kts 139°
2026-05-04 21:05 48.71943 11.14234 35690 ft 460 kts 140°
2026-05-04 21:06 48.69622 11.17585 35892 ft 461 kts 140°
2026-05-04 21:06 48.67353 11.21019 36098 ft 463 kts 135°
2026-05-04 21:06 48.65351 11.24861 36284 ft 468 kts 127°
2026-05-04 21:06 48.63732 11.29144 36475 ft 472 kts 117°
2026-05-04 21:07 48.62506 11.33771 36671 ft 475 kts 113°
2026-05-04 21:07 48.61425 11.38494 36841 ft 476 kts 111°
2026-05-04 21:07 48.60415 11.43259 37028 ft 477 kts 110°
2026-05-04 21:07 48.59429 11.48049 37212 ft 478 kts 110°
2026-05-04 21:08 48.58444 11.52844 37392 ft 478 kts 110°
2026-05-04 21:08 48.57459 11.57638 37564 ft 479 kts 108°
2026-05-04 21:08 48.56653 11.62523 37741 ft 480 kts 106°
2026-05-04 21:08 48.55903 11.67436 37920 ft 481 kts 105°
2026-05-04 21:09 48.55174 11.72363 38095 ft 481 kts 105°
2026-05-04 21:09 48.54455 11.77300 38239 ft 482 kts 105°
2026-05-04 21:09 48.53739 11.82234 38390 ft 482 kts 104°
2026-05-04 21:09 48.53019 11.87183 38549 ft 482 kts 104°
2026-05-04 21:10 48.52297 11.92124 38688 ft 483 kts 105°
2026-05-04 21:10 48.51572 11.97060 38828 ft 482 kts 105°
2026-05-04 21:10 48.50108 12.06942 38935 ft 482 kts 105°
2026-05-04 21:11 48.48635 12.16784 38926 ft 481 kts 105°
2026-05-04 21:11 48.47151 12.26602 38903 ft 479 kts 105°
2026-05-04 21:12 48.45664 12.36380 38893 ft 478 kts 105°
2026-05-04 21:12 48.44170 12.46150 38899 ft 478 kts 105°
2026-05-04 21:13 48.42678 12.55841 38893 ft 478 kts 105°
2026-05-04 21:13 48.41169 12.65593 38891 ft 479 kts 105°
2026-05-04 21:14 48.39965 12.75449 38893 ft 481 kts 95°
2026-05-04 21:14 48.39981 12.85521 38893 ft 482 kts 89°
2026-05-04 21:15 48.40274 12.95606 38894 ft 482 kts 88°
2026-05-04 21:15 48.40606 13.05687 38891 ft 482 kts 88°
2026-05-04 21:16 48.40910 13.15753 38895 ft 481 kts 89°
2026-05-04 21:16 48.41120 13.25809 38892 ft 480 kts 94°
2026-05-04 21:17 48.39929 13.35593 38896 ft 475 kts 111°
2026-05-04 21:17 48.37549 13.44851 38897 ft 474 kts 115°
2026-05-04 21:18 48.34943 13.53962 38894 ft 474 kts 115°
2026-05-04 21:18 48.32314 13.63059 38908 ft 474 kts 115°
2026-05-04 21:19 48.29708 13.72159 38893 ft 474 kts 115°
2026-05-04 21:19 48.27125 13.81206 38906 ft 474 kts 115°
2026-05-04 21:20 48.24523 13.90303 38904 ft 475 kts 115°
2026-05-04 21:20 48.21903 13.99423 38900 ft 475 kts 115°
2026-05-04 21:21 48.19283 14.08510 38938 ft 474 kts 115°
2026-05-04 21:21 48.16660 14.17566 38937 ft 474 kts 115°
2026-05-04 21:22 48.14028 14.26621 38937 ft 475 kts 115°
2026-05-04 21:22 48.11379 14.35698 38931 ft 476 kts 115°
2026-05-04 21:23 48.08726 14.44757 38925 ft 476 kts 115°
2026-05-04 21:23 48.06063 14.53818 38922 ft 476 kts 115°
2026-05-04 21:24 48.03395 14.62861 38912 ft 476 kts 115°
2026-05-04 21:24 48.00717 14.71908 38915 ft 476 kts 115°
2026-05-04 21:25 47.98047 14.80891 38918 ft 476 kts 115°
2026-05-04 21:25 47.95353 14.89924 38918 ft 476 kts 115°
2026-05-04 21:26 47.92651 14.98949 38931 ft 476 kts 115°
2026-05-04 21:26 47.89945 15.07954 38944 ft 476 kts 115°
2026-05-04 21:27 47.87233 15.16948 38944 ft 476 kts 115°
2026-05-04 21:27 47.84516 15.25922 38951 ft 476 kts 115°
2026-05-04 21:28 47.81792 15.34891 38947 ft 476 kts 115°
2026-05-04 21:28 47.79055 15.43868 38955 ft 477 kts 115°
2026-05-04 21:29 47.76300 15.52872 38971 ft 479 kts 115°
2026-05-04 21:29 47.73539 15.61863 38972 ft 478 kts 116°
2026-05-04 21:30 47.70770 15.70850 38972 ft 479 kts 115°
2026-05-04 21:30 47.68015 15.79755 38973 ft 476 kts 115°
2026-05-04 21:31 47.63868 15.93104 38966 ft 474 kts 115°
2026-05-04 21:32 47.61099 16.01978 38960 ft 474 kts 115°
2026-05-04 21:32 47.58322 16.10846 38963 ft 474 kts 115°
2026-05-04 21:33 47.55536 16.19711 38962 ft 475 kts 115°
2026-05-04 21:33 47.53213 16.27081 38963 ft 475 kts 115°
2026-05-04 21:34 47.50410 16.35943 38961 ft 475 kts 115°
2026-05-04 21:34 47.47601 16.44793 38960 ft 475 kts 116°
2026-05-04 21:35 47.44785 16.53635 38958 ft 475 kts 116°
2026-05-04 21:35 47.42191 16.62589 38972 ft 475 kts 110°
2026-05-04 21:36 47.39961 16.71791 38968 ft 475 kts 109°
2026-05-04 21:36 47.37819 16.80929 38968 ft 475 kts 109°
2026-05-04 21:37 47.35658 16.90137 38969 ft 475 kts 109°
2026-05-04 21:37 47.33487 16.99310 38975 ft 474 kts 109°
2026-05-04 21:38 47.31298 17.08494 38979 ft 474 kts 109°
2026-05-04 21:38 47.29103 17.17656 38985 ft 474 kts 109°
2026-05-04 21:39 47.26900 17.26818 38989 ft 474 kts 109°
2026-05-04 21:39 47.24690 17.35974 38993 ft 474 kts 109°
2026-05-04 21:40 47.22475 17.45110 38993 ft 474 kts 109°
2026-05-04 21:40 47.20268 17.54178 38994 ft 475 kts 110°
2026-05-04 21:41 47.18034 17.63318 38999 ft 475 kts 109°
2026-05-04 21:41 47.15793 17.72450 39000 ft 475 kts 109°
2026-05-04 21:42 47.13548 17.81563 39017 ft 475 kts 110°
2026-05-04 21:42 47.11289 17.90690 39023 ft 475 kts 110°
2026-05-04 21:43 47.09029 17.99788 39024 ft 474 kts 110°
2026-05-04 21:43 47.06764 18.08871 39029 ft 474 kts 110°
2026-05-04 21:44 47.04504 18.17897 39029 ft 474 kts 110°
2026-05-04 21:44 47.02223 18.26968 39036 ft 474 kts 110°
2026-05-04 21:45 46.99937 18.36023 39040 ft 474 kts 110°
2026-05-04 21:45 46.97644 18.45073 39039 ft 474 kts 110°
2026-05-04 21:46 46.95343 18.54116 39040 ft 474 kts 110°
2026-05-04 21:46 46.93034 18.63157 39039 ft 474 kts 110°
2026-05-04 21:47 46.90720 18.72180 39047 ft 474 kts 110°
2026-05-04 21:47 46.88395 18.81211 39054 ft 474 kts 110°
2026-05-04 21:48 46.86065 18.90224 39054 ft 474 kts 110°
2026-05-04 21:48 46.83727 18.99234 39057 ft 474 kts 110°
2026-05-04 21:49 46.81400 19.08169 39067 ft 474 kts 110°
2026-05-04 21:49 46.79047 19.17167 39061 ft 475 kts 110°
2026-05-04 21:50 46.76682 19.26176 39066 ft 475 kts 110°
2026-05-04 21:50 46.74314 19.35161 39067 ft 475 kts 110°
2026-05-04 21:51 46.71940 19.44136 39072 ft 475 kts 110°
2026-05-04 21:51 46.69557 19.53109 39072 ft 475 kts 110°
2026-05-04 21:52 46.67172 19.62059 39072 ft 475 kts 110°
2026-05-04 21:52 46.64770 19.71036 39075 ft 475 kts 110°
2026-05-04 21:53 46.62366 19.79986 39079 ft 475 kts 110°
2026-05-04 21:53 46.59956 19.88922 39073 ft 475 kts 110°
2026-05-04 21:54 46.57540 19.97849 39068 ft 475 kts 110°
2026-05-04 21:54 46.55115 20.06775 39067 ft 475 kts 110°
2026-05-04 21:55 46.52701 20.15630 39058 ft 475 kts 110°
2026-05-04 21:55 46.50263 20.24536 39063 ft 474 kts 110°
2026-05-04 21:56 46.47818 20.33436 39060 ft 475 kts 110°
2026-05-04 21:56 46.45369 20.42321 39062 ft 475 kts 111°
2026-05-04 21:57 46.42910 20.51204 39073 ft 475 kts 111°
2026-05-04 21:57 46.40443 20.60085 39064 ft 475 kts 111°
2026-05-04 21:58 46.37971 20.68952 39066 ft 475 kts 111°
2026-05-04 21:58 46.35490 20.77820 39067 ft 475 kts 111°
2026-05-04 21:59 46.33002 20.86675 39077 ft 475 kts 111°
2026-05-04 21:59 46.30508 20.95524 39075 ft 476 kts 111°
2026-05-04 22:00 46.28000 21.04388 39070 ft 476 kts 111°
2026-05-04 22:00 46.25486 21.13239 39073 ft 476 kts 111°
2026-05-04 22:01 46.22957 21.22074 39084 ft 476 kts 111°